Douglas Bisbee, AZ

4:11 PM MST on January 22, 2018 (GMT -0700)
Bisbee Douglas International

Weather History for KDUG - August, 2013

Change the Weather History Date:

Tuesday, August 13, 2013

  Actual Average Record
Temperature  
Mean Temperature 80 °F 78 °F  
Max Temperature 94 °F 92 °F 101 °F (2012)
Min Temperature 66 °F 65 °F 58 °F (1972)
Degree Days  
Heating Degree Days 0 0  
Month to date heating degree days 0 0  
Since 1 June heating degree days 0 0  
Since 1 July heating degree days 0 0  
Cooling Degree Days 15 13  
Month to date cooling degree days 143 171  
Year to date cooling degree days 1297 1232  
Since 1 June cooling degree days 1097 1031  
Growing Degree Days 30 (Base 50)    
Moisture  
Dew Point 63 °F    
Average Humidity 65    
Maximum Humidity 93    
Minimum Humidity 36    
Precipitation  
Precipitation 0.00 in 0.11 in 1.98 in (1964)
Month to date precipitation 3.00 1.54  
Year to date precipitation 14.10 7.50  
Snow  
Snow 0.00 in - - ()
Month to date snowfall 0.0  
Snow Depth 0.00 in    
Sea Level Pressure  
Sea Level Pressure 29.91 in    
Wind  
Wind Speed 5 mph (East)    
Max Wind Speed 23 mph    
Max Gust Speed 29 mph    
Visibility 10 miles    
Events Thunderstorm    
T = Trace of Precipitation, MM = Missing Value Source: NWS Daily Summary

Daily Weather History Graph

Daily Weather History Graph

Search for Another Location

Airport or City:

Trip Planner

Search our weather history database for the weather conditions in past years. The results will help you decide how hot, cold, wet, or windy it might be!

Date:

Astronomy

Aug. 13, 2013 Rise Set
Actual Time 5:42 AM MST 7:03 PM MST
Civil Twilight 5:16 AM MST 7:28 PM MST
Nautical Twilight 4:46 AM MST 7:59 PM MST
Astronomical Twilight 4:14 AM MST 8:31 PM MST
Moon 12:11 PM MST (8/13) 11:11 PM MST (8/13)
Length of Visible Light 14h 11m
Length of Day
13h 20m
Waxing Crescent, 43% of the Moon is Illuminated
Aug 13
Waxing Crescent
Aug 14
First Quarter
Aug 20
Full
Aug 28
Last Quarter
Sep 5
New

Hourly Weather History & Observations

Time (MST) Temp. Heat Index Dew Point Humidity Pressure Visibility Wind Dir Wind Speed Gust Speed Precip Events Conditions
12:56 AM 72.0 °F - 64.0 °F 76% 29.88 in 10.0 mi Calm Calm - N/A   Overcast
1:56 AM 73.0 °F - 62.1 °F 68% 29.87 in 10.0 mi ESE 9.2 mph - N/A   Clear
2:56 AM 73.0 °F - 62.1 °F 68% 29.87 in 10.0 mi East 5.8 mph - N/A   Clear
3:56 AM 69.1 °F - 64.0 °F 84% 29.88 in 10.0 mi Calm Calm - N/A   Clear
4:56 AM 66.9 °F - 64.0 °F 90% 29.91 in 10.0 mi NNE 5.8 mph - N/A   Clear
5:56 AM 68.0 °F - 63.0 °F 84% 29.94 in 10.0 mi NE 5.8 mph - N/A   Clear
6:56 AM 72.0 °F - 64.9 °F 78% 29.95 in 10.0 mi WSW 3.5 mph - N/A   Clear
7:56 AM 75.9 °F - 64.0 °F 67% 29.95 in 10.0 mi Calm Calm - N/A   Clear
8:56 AM 79.0 °F - 61.0 °F 54% 29.96 in 10.0 mi South 5.8 mph - N/A   Clear
9:56 AM 82.0 °F 82.7 °F 61.0 °F 49% 29.95 in 10.0 mi Variable 3.5 mph - N/A   Clear
10:56 AM 84.0 °F 84.0 °F 60.1 °F 44% 29.94 in 10.0 mi WSW 4.6 mph - N/A   Clear
11:56 AM 87.1 °F 86.7 °F 60.1 °F 40% 29.92 in 10.0 mi Variable 4.6 mph - N/A   Clear
12:56 PM 88.0 °F 87.6 °F 60.1 °F 39% 29.90 in 10.0 mi WSW 4.6 mph - N/A   Clear
1:56 PM 90.0 °F 90.0 °F 61.0 °F 38% 29.86 in 10.0 mi WNW 5.8 mph - N/A   Clear
2:56 PM 91.0 °F 90.9 °F 61.0 °F 36% 29.83 in 10.0 mi West 4.6 mph - N/A   Clear
3:33 PM 91.4 °F 91.4 °F 60.8 °F 36% 30.05 in 10.0 mi Calm Calm - N/A Thunderstorm Clear
3:56 PM 93.0 °F 92.7 °F 60.1 °F 33% 29.82 in 10.0 mi North 3.5 mph - N/A Thunderstorm Thunderstorm
4:37 PM 91.4 °F 91.4 °F 60.8 °F 36% 30.06 in 10.0 mi ESE 16.1 mph - N/A Thunderstorm Clear
4:47 PM 86.0 °F 86.6 °F 62.6 °F 45% 30.07 in 10.0 mi SE 23.0 mph 28.8 mph N/A Thunderstorm Thunderstorm
4:56 PM 86.0 °F 86.1 °F 61.0 °F 43% 29.86 in 10.0 mi SE 16.1 mph - N/A Thunderstorm Clear
5:35 PM 87.8 °F 87.1 °F 59.0 °F 38% 30.04 in 10.0 mi ESE 5.8 mph - N/A   Clear
5:56 PM 88.0 °F 87.1 °F 59.0 °F 37% 29.82 in 10.0 mi ENE 5.8 mph - N/A   Clear
6:56 PM 84.0 °F 85.8 °F 64.9 °F 53% 29.83 in 10.0 mi ESE 6.9 mph - N/A   Clear
7:56 PM 78.1 °F - 66.9 °F 68% 29.85 in 10.0 mi NNW 6.9 mph - N/A   Clear
8:56 PM 78.1 °F - 66.9 °F 68% 29.86 in 10.0 mi ENE 4.6 mph - N/A   Clear
9:56 PM 77.0 °F - 66.0 °F 69% 29.86 in 10.0 mi NNE 6.9 mph - N/A   Clear
10:56 PM 77.0 °F - 66.0 °F 69% 29.86 in 10.0 mi Calm Calm - N/A   Clear
11:56 PM 72.0 °F - 68.0 °F 87% 29.86 in 10.0 mi South 5.8 mph - N/A   Clear